Location: 5810 Zion Rd, Cleves, OH 45002, USA
(39.1922°N, 84.7113°W)
Time: 22:42:59
(UTC-05:00)

Vanguard 3 - Pass Details

Date: 16 December 2019
Orbit: 508 x 3263 km, 33.4° (Epoch: 20 January)

Event Time Altitude Azimuth Distance (km) Brightness Sun altitude
Rises 08:46:20 0° 259° (W) 3,472 10.0 7.9°
Reaches altitude 10° 08:48:25 10° 256° (WSW) 2,763 9.6 8.2°
Maximum altitude 08:55:07 61° 177° (S) 1,605 9.1 9.2°
Drops below altitude 10° 09:07:16 10° 102° (ESE) 4,841 12.3 11.0°
Sets 09:12:07 0° 99° (E) 6,270 12.7 11.7°
